[Date Prev][Date Next][Thread Prev][Thread Next] - [Date Index][Thread Index][Author Index]
2 Line ISS Keps 5-9
- Subject: [sarex] 2 Line ISS Keps 5-9
- From: "Dave Larsen PhD" <doc@xxxxxxxxxxx>
- Date: Thu, 9 May 2002 03:34:44 -0700
ISS
1 25544U 98067A 02129.31816132 .00043703 00000-0 54831-3 0 4186
2 25544 51.6361 248.3450 0007829 48.1874 44.4142 15.59250360197965
----
Via the sarex mailing list at AMSAT.ORG courtesy of AMSAT-NA.
To unsubscribe, send "unsubscribe sarex" to Majordomo@amsat.org
AMSAT Home